Time,TemperatureF,DewpointF,PressureIn,WindDirection,WindDirectionDegrees,WindSpeedMPH,WindSpeedGustMPH,Humidity,HourlyPrecipIn,Conditions,Clouds,dailyrainin,SoftwareType,DateUTC
2013-04-25 00:01:00,40.5,33.4,30.18,WNW,283,0.0,8.0,76,0.00,,,0.19,meteohub,2013-04-25 04:01:00,
2013-04-25 00:02:00,40.3,33.3,30.18,WNW,285,2.0,8.0,76,0.00,,,0.19,meteohub,2013-04-25 04:02:00,
2013-04-25 00:03:00,40.3,33.3,30.18,WNW,285,2.0,8.0,76,0.00,,,0.19,meteohub,2013-04-25 04:03:00,
2013-04-25 00:08:00,40.1,33.4,30.18,SSW,197,1.0,7.0,77,0.00,,,0.00,meteohub,2013-04-25 04:08:00,
2013-04-25 00:13:00,39.9,33.6,30.18,WNW,285,2.0,7.0,78,0.00,,,0.00,meteohub,2013-04-25 04:13:00,
2013-04-25 00:18:00,39.9,33.3,30.18,WNW,285,2.0,5.0,77,0.00,,,0.00,meteohub,2013-04-25 04:18:00,
2013-04-25 00:23:00,39.9,33.6,30.18,West,281,0.0,5.0,78,0.00,,,0.00,meteohub,2013-04-25 04:23:00,
2013-04-25 00:28:00,39.9,33.6,30.19,West,277,2.0,5.0,78,0.00,,,0.00,meteohub,2013-04-25 04:28:00,
2013-04-25 00:33:00,39.9,33.6,30.18,West,281,1.0,4.0,78,0.00,,,0.00,meteohub,2013-04-25 04:33:00,
2013-04-25 00:38:00,39.7,33.4,30.18,West,269,1.0,4.0,78,0.00,,,0.00,meteohub,2013-04-25 04:38:00,
2013-04-25 00:44:00,39.7,33.8,30.18,WSW,252,6.0,6.0,79,0.00,,,0.00,meteohub,2013-04-25 04:44:00,
2013-04-25 00:49:00,39.7,33.8,30.18,West,274,3.0,6.0,79,0.00,,,0.00,meteohub,2013-04-25 04:49:00,
2013-04-25 00:54:00,39.7,33.8,30.18,SW,235,0.0,6.0,79,0.00,,,0.00,meteohub,2013-04-25 04:54:00,
2013-04-25 00:59:00,39.6,33.6,30.19,WNW,283,1.0,6.0,79,0.00,,,0.00,meteohub,2013-04-25 04:59:00,
2013-04-25 01:04:00,39.7,34.2,30.19,West,260,0.0,4.0,80,0.00,,,0.00,meteohub,2013-04-25 05:04:00,
2013-04-25 01:09:00,39.7,34.2,30.19,West,271,0.0,4.0,80,0.00,,,0.00,meteohub,2013-04-25 05:09:00,
2013-04-25 01:14:00,39.7,34.2,30.19,WNW,284,0.0,4.0,80,0.00,,,0.00,meteohub,2013-04-25 05:14:00,
2013-04-25 01:19:00,39.9,34.3,30.19,West,264,0.0,3.0,80,0.00,,,0.00,meteohub,2013-04-25 05:19:00,
2013-04-25 01:24:00,39.9,34.3,30.20,West,269,3.0,3.0,80,0.00,,,0.00,meteohub,2013-04-25 05:24:00,
2013-04-25 01:29:00,39.9,34.3,30.20,West,278,4.0,4.0,80,0.00,,,0.00,meteohub,2013-04-25 05:29:00,
2013-04-25 01:34:00,40.1,34.2,30.19,West,264,1.0,5.0,79,0.00,,,0.00,meteohub,2013-04-25 05:34:00,
2013-04-25 01:39:00,40.1,34.2,30.20,West,280,2.0,5.0,79,0.00,,,0.00,meteohub,2013-04-25 05:39:00,
2013-04-25 01:45:00,40.1,34.2,30.20,West,276,2.0,5.0,79,0.00,,,0.00,meteohub,2013-04-25 05:45:00,
2013-04-25 01:50:00,39.9,34.0,30.20,WSW,253,1.0,7.0,79,0.00,,,0.00,meteohub,2013-04-25 05:50:00,
2013-04-25 01:55:00,39.9,34.3,30.20,WNW,282,0.0,7.0,80,0.00,,,0.00,meteohub,2013-04-25 05:55:00,
2013-04-25 02:00:00,39.9,34.3,30.21,WNW,286,0.0,7.0,80,0.00,,,0.00,meteohub,2013-04-25 06:00:00,
2013-04-25 02:05:00,39.9,34.3,30.21,West,280,1.0,5.0,80,0.00,,,0.00,meteohub,2013-04-25 06:05:00,
2013-04-25 02:10:00,39.9,34.0,30.21,WNW,283,3.0,5.0,79,0.00,,,0.00,meteohub,2013-04-25 06:10:00,
2013-04-25 02:15:00,39.9,34.3,30.21,WSW,242,4.0,6.0,80,0.00,,,0.00,meteohub,2013-04-25 06:15:00,
2013-04-25 02:20:00,39.9,34.3,30.21,WNW,284,2.0,6.0,80,0.00,,,0.00,meteohub,2013-04-25 06:20:00,
2013-04-25 02:25:00,39.9,34.3,30.21,NNW,340,0.0,7.0,80,0.00,,,0.00,meteohub,2013-04-25 06:25:00,
2013-04-25 02:30:00,39.7,33.4,30.21,NNW,336,0.0,7.0,78,0.00,,,0.00,meteohub,2013-04-25 06:30:00,
2013-04-25 02:35:00,39.7,33.4,30.21,NE,53,0.0,5.0,78,0.00,,,0.00,meteohub,2013-04-25 06:35:00,
2013-04-25 02:40:00,39.6,33.3,30.21,WNW,300,0.0,5.0,78,0.00,,,0.00,meteohub,2013-04-25 06:40:00,
2013-04-25 02:45:00,39.4,33.1,30.21,WNW,283,1.0,5.0,78,0.00,,,0.00,meteohub,2013-04-25 06:45:00,
2013-04-25 02:50:00,39.2,32.9,30.21,WNW,291,0.0,2.0,78,0.00,,,0.00,meteohub,2013-04-25 06:50:00,
2013-04-25 02:56:00,38.8,32.5,30.21,WNW,294,3.0,3.0,78,0.00,,,0.00,meteohub,2013-04-25 06:56:00,
2013-04-25 03:01:00,38.7,32.7,30.22,WSW,255,0.0,3.0,79,0.00,,,0.00,meteohub,2013-04-25 07:01:00,
2013-04-25 03:06:00,38.3,32.4,30.22,WSW,256,0.0,3.0,79,0.00,,,0.00,meteohub,2013-04-25 07:06:00,
2013-04-25 03:11:00,37.8,32.5,30.22,WSW,255,0.0,3.0,81,0.00,,,0.00,meteohub,2013-04-25 07:11:00,
2013-04-25 03:16:00,37.4,32.2,30.22,SW,231,1.0,1.0,81,0.00,,,0.00,meteohub,2013-04-25 07:16:00,
2013-04-25 03:21:00,37.4,32.2,30.22,West,275,0.0,2.0,81,0.00,,,0.00,meteohub,2013-04-25 07:21:00,
2013-04-25 03:26:00,37.2,32.2,30.22,WSW,238,0.0,2.0,82,0.00,,,0.00,meteohub,2013-04-25 07:26:00,
2013-04-25 03:31:00,36.9,32.2,30.23,South,172,0.0,2.0,83,0.00,,,0.00,meteohub,2013-04-25 07:31:00,
2013-04-25 03:36:00,36.7,32.4,30.23,SSW,210,0.0,1.0,84,0.00,,,0.00,meteohub,2013-04-25 07:36:00,
2013-04-25 03:41:00,36.3,32.0,30.23,SSW,210,0.0,1.0,84,0.00,,,0.00,meteohub,2013-04-25 07:41:00,
2013-04-25 03:46:00,36.1,32.0,30.23,SSW,211,0.0,1.0,85,0.00,,,0.00,meteohub,2013-04-25 07:46:00,
2013-04-25 03:51:00,36.0,31.8,30.24,SSW,212,0.0,1.0,85,0.00,,,0.00,meteohub,2013-04-25 07:51:00,
2013-04-25 03:56:00,35.8,32.0,30.24,SSW,212,0.0,1.0,86,0.00,,,0.00,meteohub,2013-04-25 07:56:00,
2013-04-25 04:01:00,35.6,31.8,30.24,SSW,210,0.0,1.0,86,0.00,,,0.00,meteohub,2013-04-25 08:01:00,
2013-04-25 04:06:00,35.4,31.6,30.24,SE,129,0.0,1.0,86,0.00,,,0.00,meteohub,2013-04-25 08:06:00,
2013-04-25 04:12:00,35.4,32.0,30.24,SE,134,0.0,1.0,87,0.00,,,0.00,meteohub,2013-04-25 08:12:00,
2013-04-25 04:17:00,35.2,31.8,30.24,SE,134,0.0,1.0,87,0.00,,,0.00,meteohub,2013-04-25 08:17:00,
2013-04-25 04:22:00,35.2,31.8,30.25,SE,134,0.0,1.0,87,0.00,,,0.00,meteohub,2013-04-25 08:22:00,
2013-04-25 04:27:00,35.2,31.8,30.24,SE,134,0.0,0.0,87,0.00,,,0.00,meteohub,2013-04-25 08:27:00,
2013-04-25 04:32:00,35.4,32.0,30.25,SE,134,0.0,0.0,87,0.00,,,0.00,meteohub,2013-04-25 08:32:00,
2013-04-25 04:37:00,36.0,32.5,30.24,SE,134,0.0,0.0,87,0.00,,,0.00,meteohub,2013-04-25 08:37:00,
2013-04-25 04:42:00,36.1,32.4,30.25,SE,134,0.0,0.0,86,0.00,,,0.00,meteohub,2013-04-25 08:42:00,
2013-04-25 04:47:00,36.1,32.7,30.25,SE,134,0.0,0.0,87,0.00,,,0.00,meteohub,2013-04-25 08:47:00,
2013-04-25 04:52:00,36.3,32.9,30.24,SE,134,0.0,0.0,87,0.00,,,0.00,meteohub,2013-04-25 08:52:00,
2013-04-25 04:57:00,36.3,32.9,30.24,SE,134,0.0,0.0,87,0.00,,,0.00,meteohub,2013-04-25 08:57:00,
2013-04-25 05:02:00,36.5,32.7,30.24,SE,132,0.0,0.0,86,0.00,,,0.00,meteohub,2013-04-25 09:02:00,
2013-04-25 05:07:00,36.7,32.9,30.24,East,97,0.0,1.0,86,0.00,,,0.00,meteohub,2013-04-25 09:07:00,
2013-04-25 05:12:00,36.5,32.7,30.24,NW,319,0.0,1.0,86,0.00,,,0.00,meteohub,2013-04-25 09:12:00,
2013-04-25 05:17:00,36.1,32.4,30.24,NW,319,0.0,1.0,86,0.00,,,0.00,meteohub,2013-04-25 09:17:00,
2013-04-25 05:22:00,36.0,32.5,30.24,NW,319,0.0,0.0,87,0.00,,,0.00,meteohub,2013-04-25 09:22:00,
2013-04-25 05:27:00,35.8,32.4,30.24,NW,310,0.0,0.0,87,0.00,,,0.00,meteohub,2013-04-25 09:27:00,
2013-04-25 05:32:00,35.4,32.2,30.24,ESE,111,0.0,0.0,88,0.00,,,0.00,meteohub,2013-04-25 09:32:00,
2013-04-25 05:37:00,35.4,32.0,30.25,ESE,111,0.0,1.0,87,0.00,,,0.00,meteohub,2013-04-25 09:37:00,
2013-04-25 05:42:00,35.2,31.8,30.25,ESE,111,0.0,1.0,87,0.00,,,0.00,meteohub,2013-04-25 09:42:00,
2013-04-25 05:47:00,34.9,31.5,30.25,ESE,111,0.0,1.0,87,0.00,,,0.00,meteohub,2013-04-25 09:47:00,
2013-04-25 05:52:00,34.5,31.3,30.25,ESE,111,0.0,0.0,88,0.00,,,0.00,meteohub,2013-04-25 09:52:00,
2013-04-25 05:57:00,34.9,32.0,30.25,ESE,112,0.0,0.0,89,0.00,,,0.00,meteohub,2013-04-25 09:57:00,
2013-04-25 06:02:00,34.7,31.8,30.25,ESE,112,0.0,0.0,89,0.00,,,0.00,meteohub,2013-04-25 10:02:00,
2013-04-25 06:07:00,34.5,31.6,30.25,ESE,111,0.0,0.0,89,0.00,,,0.00,meteohub,2013-04-25 10:07:00,
2013-04-25 06:12:00,34.2,31.3,30.26,ESE,112,0.0,0.0,89,0.00,,,0.00,meteohub,2013-04-25 10:12:00,
2013-04-25 06:17:00,34.0,31.3,30.25,ESE,112,0.0,0.0,90,0.00,,,0.00,meteohub,2013-04-25 10:17:00,
2013-04-25 06:22:00,33.6,30.9,30.26,WSW,240,0.0,0.0,90,0.00,,,0.00,meteohub,2013-04-25 10:22:00,
2013-04-25 06:27:00,33.4,30.7,30.26,ESE,107,0.0,1.0,90,0.00,,,0.00,meteohub,2013-04-25 10:27:00,
2013-04-25 06:32:00,33.4,30.7,30.26,ESE,107,0.0,1.0,90,0.00,,,0.00,meteohub,2013-04-25 10:32:00,
2013-04-25 06:37:00,33.3,30.9,30.26,ESE,108,0.0,1.0,91,0.00,,,0.00,meteohub,2013-04-25 10:37:00,
2013-04-25 06:42:00,33.1,30.7,30.26,ESE,108,0.0,1.0,91,0.00,,,0.00,meteohub,2013-04-25 10:42:00,
2013-04-25 06:47:00,33.1,30.7,30.26,ESE,108,0.0,1.0,91,0.00,,,0.00,meteohub,2013-04-25 10:47:00,
2013-04-25 06:52:00,33.1,31.1,30.26,ESE,108,0.0,1.0,92,0.00,,,0.00,meteohub,2013-04-25 10:52:00,
2013-04-25 06:57:00,33.1,30.7,30.26,ESE,108,0.0,1.0,91,0.00,,,0.00,meteohub,2013-04-25 10:57:00,
2013-04-25 07:02:00,32.9,30.9,30.27,ESE,108,0.0,0.0,92,0.00,,,0.00,meteohub,2013-04-25 11:02:00,
2013-04-25 07:07:00,33.1,31.1,30.27,ESE,108,0.0,0.0,92,0.00,,,0.00,meteohub,2013-04-25 11:07:00,
2013-04-25 07:12:00,33.1,31.1,30.27,ESE,108,0.0,0.0,92,0.00,,,0.00,meteohub,2013-04-25 11:12:00,
2013-04-25 07:17:00,33.1,31.1,30.27,ESE,108,0.0,0.0,92,0.00,,,0.00,meteohub,2013-04-25 11:17:00,
2013-04-25 07:22:00,33.3,31.5,30.27,ESE,108,0.0,0.0,93,0.00,,,0.00,meteohub,2013-04-25 11:22:00,
2013-04-25 07:27:00,33.4,31.6,30.28,ESE,109,0.0,0.0,93,0.00,,,0.00,meteohub,2013-04-25 11:27:00,
2013-04-25 07:32:00,33.4,31.6,30.28,ESE,108,0.0,0.0,93,0.00,,,0.00,meteohub,2013-04-25 11:32:00,
2013-04-25 07:37:00,33.6,31.8,30.28,ESE,109,0.0,0.0,93,0.00,,,0.00,meteohub,2013-04-25 11:37:00,
2013-04-25 07:42:00,33.8,32.0,30.28,ESE,108,0.0,0.0,93,0.00,,,0.00,meteohub,2013-04-25 11:42:00,
2013-04-25 07:47:00,34.0,32.2,30.28,ESE,108,0.0,0.0,93,0.00,,,0.00,meteohub,2013-04-25 11:47:00,
2013-04-25 07:52:00,34.3,32.5,30.28,East,80,0.0,1.0,93,0.00,,,0.00,meteohub,2013-04-25 11:52:00,
2013-04-25 07:57:00,34.9,32.7,30.29,North,10,0.0,1.0,92,0.00,,,0.00,meteohub,2013-04-25 11:57:00,
2013-04-25 08:02:00,35.2,33.1,30.29,North,9,0.0,1.0,92,0.00,,,0.00,meteohub,2013-04-25 12:02:00,
2013-04-25 08:07:00,36.0,33.6,30.29,WNW,297,0.0,1.0,91,0.00,,,0.00,meteohub,2013-04-25 12:07:00,
2013-04-25 08:12:00,36.9,34.0,30.29,West,281,0.0,1.0,89,0.00,,,0.00,meteohub,2013-04-25 12:12:00,
2013-04-25 08:17:00,37.2,33.8,30.29,WSW,250,3.0,3.0,87,0.00,,,0.00,meteohub,2013-04-25 12:17:00,
2013-04-25 08:22:00,38.1,34.0,30.29,ESE,105,0.0,3.0,85,0.00,,,0.00,meteohub,2013-04-25 12:22:00,
2013-04-25 08:27:00,38.7,34.2,30.29,West,274,0.0,3.0,84,0.00,,,0.00,meteohub,2013-04-25 12:27:00,
2013-04-25 08:32:00,39.0,34.3,30.29,NW,304,1.0,3.0,83,0.00,,,0.00,meteohub,2013-04-25 12:32:00,
2013-04-25 08:37:00,39.7,34.7,30.29,WSW,243,1.0,2.0,82,0.00,,,0.00,meteohub,2013-04-25 12:37:00,
2013-04-25 08:42:00,40.3,34.5,30.30,SW,221,6.0,6.0,80,0.00,,,0.00,meteohub,2013-04-25 12:42:00,
2013-04-25 08:47:00,40.6,34.3,30.30,NNE,12,4.0,7.0,78,0.00,,,0.00,meteohub,2013-04-25 12:47:00,
2013-04-25 08:52:00,41.0,34.3,30.30,West,264,4.0,7.0,77,0.00,,,0.00,meteohub,2013-04-25 12:52:00,
2013-04-25 08:57:00,41.7,34.3,30.30,SW,228,2.0,7.0,75,0.00,,,0.00,meteohub,2013-04-25 12:57:00,
2013-04-25 09:02:00,42.4,34.3,30.30,SE,142,0.0,7.0,73,0.00,,,0.00,meteohub,2013-04-25 13:02:00,
2013-04-25 09:07:00,43.2,34.3,30.30,South,186,1.0,5.0,71,0.00,,,0.00,meteohub,2013-04-25 13:07:00,
2013-04-25 09:12:00,43.5,34.0,30.30,West,278,6.0,6.0,69,0.00,,,0.00,meteohub,2013-04-25 13:12:00,
2013-04-25 09:17:00,43.3,33.4,30.30,WSW,240,2.0,7.0,68,0.00,,,0.00,meteohub,2013-04-25 13:17:00,
2013-04-25 09:22:00,43.3,31.6,30.30,WSW,239,1.0,7.0,63,0.00,,,0.00,meteohub,2013-04-25 13:22:00,
2013-04-25 09:27:00,42.6,30.6,30.30,SW,232,1.0,7.0,62,0.00,,,0.00,meteohub,2013-04-25 13:27:00,
2013-04-25 09:32:00,42.8,31.1,30.30,WNW,297,2.0,7.0,63,0.00,,,0.00,meteohub,2013-04-25 13:32:00,
2013-04-25 09:37:00,43.7,31.5,30.31,West,281,0.0,7.0,62,0.00,,,0.00,meteohub,2013-04-25 13:37:00,
2013-04-25 09:42:00,43.9,30.0,30.30,NE,34,1.0,5.0,58,0.00,,,0.00,meteohub,2013-04-25 13:42:00,
2013-04-25 09:47:00,44.6,32.0,30.30,WNW,298,1.0,5.0,61,0.00,,,0.00,meteohub,2013-04-25 13:47:00,
2013-04-25 09:52:00,44.4,30.9,30.31,North,4,0.0,5.0,59,0.00,,,0.00,meteohub,2013-04-25 13:52:00,
2013-04-25 09:57:00,44.8,30.9,30.31,West,274,1.0,5.0,58,0.00,,,0.00,meteohub,2013-04-25 13:57:00,
2013-04-25 10:02:00,44.8,31.8,30.31,SW,232,1.0,5.0,60,0.00,,,0.00,meteohub,2013-04-25 14:02:00,
2013-04-25 10:07:00,45.0,30.2,30.30,NE,44,1.0,6.0,56,0.00,,,0.00,meteohub,2013-04-25 14:07:00,
2013-04-25 10:12:00,45.9,32.0,30.30,West,276,3.0,6.0,58,0.00,,,0.00,meteohub,2013-04-25 14:12:00,
2013-04-25 10:17:00,45.9,32.4,30.30,West,277,0.0,5.0,59,0.00,,,0.00,meteohub,2013-04-25 14:17:00,
2013-04-25 10:22:00,46.8,33.6,30.30,West,271,3.0,4.0,60,0.00,,,0.00,meteohub,2013-04-25 14:22:00,
2013-04-25 10:27:00,45.1,30.7,30.30,West,278,1.0,7.0,57,0.00,,,0.00,meteohub,2013-04-25 14:27:00,
2013-04-25 10:32:00,44.6,30.4,30.30,WNW,293,0.0,7.0,57,0.00,,,0.00,meteohub,2013-04-25 14:32:00,
2013-04-25 10:37:00,45.3,29.7,30.30,WSW,250,0.0,7.0,54,0.00,,,0.00,meteohub,2013-04-25 14:37:00,
2013-04-25 10:42:00,46.2,32.2,30.30,WNW,283,3.0,4.0,58,0.00,,,0.00,meteohub,2013-04-25 14:42:00,
2013-04-25 10:47:00,45.7,30.0,30.31,South,190,1.0,4.0,54,0.00,,,0.00,meteohub,2013-04-25 14:47:00,
2013-04-25 10:52:00,46.0,31.6,30.31,West,273,1.0,4.0,57,0.00,,,0.00,meteohub,2013-04-25 14:52:00,
2013-04-25 10:57:00,46.0,30.4,30.30,ESE,103,1.0,4.0,54,0.00,,,0.00,meteohub,2013-04-25 14:57:00,
2013-04-25 11:02:00,46.8,28.6,30.31,SE,131,0.0,5.0,49,0.00,,,0.00,meteohub,2013-04-25 15:02:00,
2013-04-25 11:07:00,47.7,29.5,30.31,West,273,3.0,6.0,49,0.00,,,0.00,meteohub,2013-04-25 15:07:00,
2013-04-25 11:12:00,47.1,29.5,30.31,West,276,2.0,6.0,50,0.00,,,0.00,meteohub,2013-04-25 15:12:00,
2013-04-25 11:17:00,47.1,28.4,30.31,West,274,1.0,6.0,48,0.00,,,0.00,meteohub,2013-04-25 15:17:00,
2013-04-25 11:22:00,47.5,29.8,30.30,SW,225,1.0,7.0,50,0.00,,,0.00,meteohub,2013-04-25 15:22:00,
2013-04-25 11:27:00,47.1,28.9,30.30,West,275,4.0,7.0,49,0.00,,,0.00,meteohub,2013-04-25 15:27:00,
2013-04-25 11:32:00,47.5,29.3,30.30,SSW,211,2.0,9.0,49,0.00,,,0.00,meteohub,2013-04-25 15:32:00,
2013-04-25 11:37:00,48.2,28.9,30.30,WNW,288,0.0,9.0,47,0.00,,,0.00,meteohub,2013-04-25 15:37:00,
2013-04-25 11:42:00,48.7,29.8,30.30,SW,217,2.0,7.0,48,0.00,,,0.00,meteohub,2013-04-25 15:42:00,
2013-04-25 11:47:00,49.3,31.5,30.30,SW,232,1.0,9.0,50,0.00,,,0.00,meteohub,2013-04-25 15:47:00,
2013-04-25 11:52:00,49.3,28.8,30.31,SE,129,1.0,9.0,45,0.00,,,0.00,meteohub,2013-04-25 15:52:00,
2013-04-25 11:57:00,49.3,29.8,30.31,WSW,255,3.0,7.0,47,0.00,,,0.00,meteohub,2013-04-25 15:57:00,
2013-04-25 12:02:00,49.5,30.6,30.31,SW,236,6.0,7.0,48,0.00,,,0.00,meteohub,2013-04-25 16:02:00,
2013-04-25 12:07:00,48.9,29.7,30.31,West,260,4.0,10.0,47,0.00,,,0.00,meteohub,2013-04-25 16:07:00,
2013-04-25 12:12:00,49.5,30.6,30.31,SW,224,2.0,10.0,48,0.00,,,0.00,meteohub,2013-04-25 16:12:00,
2013-04-25 12:17:00,49.8,29.3,30.30,SW,228,3.0,11.0,45,0.00,,,0.00,meteohub,2013-04-25 16:17:00,
2013-04-25 12:22:00,49.8,28.8,30.31,WSW,246,2.0,11.0,44,0.00,,,0.00,meteohub,2013-04-25 16:22:00,
2013-04-25 12:27:00,50.4,30.4,30.30,West,271,5.0,11.0,46,0.00,,,0.00,meteohub,2013-04-25 16:27:00,
2013-04-25 12:32:00,50.2,28.6,30.30,WSW,255,5.0,9.0,43,0.00,,,0.00,meteohub,2013-04-25 16:32:00,
2013-04-25 12:37:00,49.6,28.6,30.30,East,89,2.0,13.0,44,0.00,,,0.00,meteohub,2013-04-25 16:37:00,
2013-04-25 12:42:00,50.4,31.5,30.30,WSW,256,3.0,13.0,48,0.00,,,0.00,meteohub,2013-04-25 16:42:00,
2013-04-25 12:47:00,51.3,31.6,30.30,SW,232,1.0,10.0,47,0.00,,,0.00,meteohub,2013-04-25 16:47:00,
2013-04-25 12:52:00,51.3,29.5,30.30,West,279,7.0,7.0,43,0.00,,,0.00,meteohub,2013-04-25 16:52:00,
2013-04-25 12:57:00,51.1,30.6,30.30,SW,214,0.0,11.0,45,0.00,,,0.00,meteohub,2013-04-25 16:57:00,
2013-04-25 13:02:00,51.4,31.3,30.29,WSW,255,5.0,11.0,46,0.00,,,0.00,meteohub,2013-04-25 17:02:00,
2013-04-25 13:07:00,51.8,31.1,30.29,SW,223,5.0,11.0,45,0.00,,,0.00,meteohub,2013-04-25 17:07:00,
2013-04-25 13:12:00,51.4,31.8,30.29,West,276,2.0,11.0,47,0.00,,,0.00,meteohub,2013-04-25 17:12:00,
2013-04-25 13:17:00,52.0,30.7,30.29,SW,221,4.0,11.0,44,0.00,,,0.00,meteohub,2013-04-25 17:17:00,
2013-04-25 13:22:00,51.6,30.4,30.29,West,275,0.0,11.0,44,0.00,,,0.00,meteohub,2013-04-25 17:22:00,
2013-04-25 13:27:00,52.0,30.2,30.29,SW,231,2.0,10.0,43,0.00,,,0.00,meteohub,2013-04-25 17:27:00,
2013-04-25 13:32:00,52.0,31.3,30.28,WNW,291,3.0,10.0,45,0.00,,,0.00,meteohub,2013-04-25 17:32:00,
2013-04-25 13:37:00,52.7,34.5,30.28,South,173,0.0,9.0,50,0.00,,,0.00,meteohub,2013-04-25 17:37:00,
2013-04-25 13:42:00,53.1,32.4,30.28,West,269,2.0,12.0,45,0.00,,,0.00,meteohub,2013-04-25 17:42:00,
2013-04-25 13:47:00,53.6,33.3,30.27,WNW,295,5.0,12.0,46,0.00,,,0.00,meteohub,2013-04-25 17:47:00,
2013-04-25 13:52:00,53.2,31.8,30.28,WSW,250,1.0,12.0,44,0.00,,,0.00,meteohub,2013-04-25 17:52:00,
2013-04-25 13:57:00,53.1,32.9,30.28,SE,143,2.0,11.0,46,0.00,,,0.00,meteohub,2013-04-25 17:57:00,
2013-04-25 14:02:00,54.0,32.0,30.28,West,279,1.0,11.0,43,0.00,,,0.00,meteohub,2013-04-25 18:02:00,
2013-04-25 14:07:00,54.7,32.5,30.27,SW,228,2.0,11.0,43,0.00,,,0.00,meteohub,2013-04-25 18:07:00,
2013-04-25 14:12:00,54.5,30.7,30.27,South,191,6.0,9.0,40,0.00,,,0.00,meteohub,2013-04-25 18:12:00,
2013-04-25 14:17:00,54.7,33.3,30.28,West,281,1.0,9.0,44,0.00,,,0.00,meteohub,2013-04-25 18:17:00,
2013-04-25 14:22:00,55.2,31.3,30.27,ESE,114,3.0,9.0,40,0.00,,,0.00,meteohub,2013-04-25 18:22:00,
2013-04-25 14:27:00,55.2,31.3,30.27,NW,314,7.0,9.0,40,0.00,,,0.00,meteohub,2013-04-25 18:27:00,
2013-04-25 14:32:00,55.2,31.3,30.27,WNW,286,1.0,8.0,40,0.00,,,0.00,meteohub,2013-04-25 18:32:00,
2013-04-25 14:37:00,55.6,34.5,30.27,West,274,3.0,9.0,45,0.00,,,0.00,meteohub,2013-04-25 18:37:00,
2013-04-25 14:42:00,55.8,32.4,30.27,West,272,6.0,9.0,41,0.00,,,0.00,meteohub,2013-04-25 18:42:00,
2013-04-25 14:47:00,55.9,30.7,30.27,NNE,20,1.0,9.0,38,0.00,,,0.00,meteohub,2013-04-25 18:47:00,
2013-04-25 14:52:00,55.8,31.1,30.27,South,184,5.0,8.0,39,0.00,,,0.00,meteohub,2013-04-25 18:52:00,
2013-04-25 14:57:00,55.2,30.7,30.27,WSW,255,6.0,11.0,39,0.00,,,0.00,meteohub,2013-04-25 18:57:00,
2013-04-25 15:02:00,55.6,33.4,30.27,WSW,243,2.0,11.0,43,0.00,,,0.00,meteohub,2013-04-25 19:02:00,
2013-04-25 15:07:00,55.2,30.0,30.26,West,266,3.0,12.0,38,0.00,,,0.00,meteohub,2013-04-25 19:07:00,
2013-04-25 15:12:00,55.6,32.9,30.26,WNW,300,1.0,12.0,42,0.00,,,0.00,meteohub,2013-04-25 19:12:00,
2013-04-25 15:17:00,55.9,33.3,30.25,West,267,10.0,12.0,42,0.00,,,0.00,meteohub,2013-04-25 19:17:00,
2013-04-25 15:22:00,56.3,31.1,30.25,WNW,284,3.0,10.0,38,0.00,,,0.00,meteohub,2013-04-25 19:22:00,
2013-04-25 15:27:00,56.5,31.8,30.25,SW,221,3.0,10.0,39,0.00,,,0.00,meteohub,2013-04-25 19:27:00,
2013-04-25 15:32:00,56.3,31.1,30.25,WSW,249,4.0,10.0,38,0.00,,,0.00,meteohub,2013-04-25 19:32:00,
2013-04-25 15:37:00,56.7,32.0,30.25,SW,228,7.0,11.0,39,0.00,,,0.00,meteohub,2013-04-25 19:37:00,
2013-04-25 15:42:00,56.7,32.5,30.25,WNW,283,2.0,11.0,40,0.00,,,0.00,meteohub,2013-04-25 19:42:00,
2013-04-25 15:47:00,56.5,31.1,30.25,West,268,4.0,11.0,38,0.00,,,0.00,meteohub,2013-04-25 19:47:00,
2013-04-25 15:52:00,56.5,31.1,30.25,ENE,59,1.0,8.0,38,0.00,,,0.00,meteohub,2013-04-25 19:52:00,
2013-04-25 15:57:00,56.8,32.7,30.24,WSW,244,0.0,8.0,40,0.00,,,0.00,meteohub,2013-04-25 19:57:00,
2013-04-25 16:02:00,57.0,30.9,30.25,NE,51,4.0,8.0,37,0.00,,,0.00,meteohub,2013-04-25 20:02:00,
2013-04-25 16:07:00,56.8,29.5,30.24,SSW,198,6.0,11.0,35,0.00,,,0.00,meteohub,2013-04-25 20:07:00,
2013-04-25 16:12:00,57.0,29.7,30.24,SSE,158,3.0,11.0,35,0.00,,,0.00,meteohub,2013-04-25 20:12:00,
2013-04-25 16:17:00,56.8,30.9,30.24,SSW,211,5.0,11.0,37,0.00,,,0.00,meteohub,2013-04-25 20:17:00,
2013-04-25 16:22:00,57.0,32.4,30.24,SW,224,4.0,12.0,39,0.00,,,0.00,meteohub,2013-04-25 20:22:00,
2013-04-25 16:27:00,57.6,33.4,30.23,ESE,111,3.0,12.0,40,0.00,,,0.00,meteohub,2013-04-25 20:27:00,
2013-04-25 16:32:00,57.9,33.8,30.24,WSW,239,6.0,12.0,40,0.00,,,0.00,meteohub,2013-04-25 20:32:00,
2013-04-25 16:37:00,57.9,32.5,30.23,WNW,297,4.0,10.0,38,0.00,,,0.00,meteohub,2013-04-25 20:37:00,
2013-04-25 16:42:00,57.7,30.9,30.23,SW,220,2.0,10.0,36,0.00,,,0.00,meteohub,2013-04-25 20:42:00,
2013-04-25 16:47:00,58.3,32.7,30.23,WSW,242,6.0,9.0,38,0.00,,,0.00,meteohub,2013-04-25 20:47:00,
2013-04-25 16:52:00,58.1,32.0,30.23,ENE,57,2.0,9.0,37,0.00,,,0.00,meteohub,2013-04-25 20:52:00,
2013-04-25 16:57:00,57.9,30.4,30.23,West,259,5.0,8.0,35,0.00,,,0.00,meteohub,2013-04-25 20:57:00,
2013-04-25 17:02:00,57.9,31.1,30.23,West,269,6.0,9.0,36,0.00,,,0.00,meteohub,2013-04-25 21:02:00,
2013-04-25 17:07:00,58.3,32.2,30.23,NNW,328,0.0,9.0,37,0.00,,,0.00,meteohub,2013-04-25 21:07:00,
2013-04-25 17:12:00,58.6,31.1,30.23,SW,219,2.0,8.0,35,0.00,,,0.00,meteohub,2013-04-25 21:12:00,
2013-04-25 17:17:00,59.2,32.2,30.23,West,266,2.0,8.0,36,0.00,,,0.00,meteohub,2013-04-25 21:17:00,
2013-04-25 17:22:00,59.5,33.3,30.23,SW,231,7.0,7.0,37,0.00,,,0.00,meteohub,2013-04-25 21:22:00,
2013-04-25 17:27:00,59.2,32.2,30.24,SW,218,1.0,7.0,36,0.00,,,0.00,meteohub,2013-04-25 21:27:00,
2013-04-25 17:32:00,59.2,30.0,30.24,SW,232,3.0,8.0,33,0.00,,,0.00,meteohub,2013-04-25 21:32:00,
2013-04-25 17:37:00,58.5,30.2,30.24,WSW,240,2.0,8.0,34,0.00,,,0.00,meteohub,2013-04-25 21:37:00,
2013-04-25 17:42:00,57.9,30.4,30.24,SSW,206,4.0,8.0,35,0.00,,,0.00,meteohub,2013-04-25 21:42:00,
2013-04-25 17:47:00,57.9,28.9,30.24,WNW,283,0.0,8.0,33,0.00,,,0.00,meteohub,2013-04-25 21:47:00,
2013-04-25 17:52:00,57.4,29.3,30.25,WNW,285,3.0,11.0,34,0.00,,,0.00,meteohub,2013-04-25 21:52:00,
2013-04-25 17:57:00,57.2,29.8,30.25,WNW,292,1.0,11.0,35,0.00,,,0.00,meteohub,2013-04-25 21:57:00,
2013-04-25 18:02:00,57.0,28.2,30.25,NE,56,0.0,11.0,33,0.00,,,0.00,meteohub,2013-04-25 22:02:00,
2013-04-25 18:07:00,57.0,29.7,30.25,WNW,285,0.0,7.0,35,0.00,,,0.00,meteohub,2013-04-25 22:07:00,
2013-04-25 18:12:00,56.8,28.8,30.25,WSW,246,2.0,7.0,34,0.00,,,0.00,meteohub,2013-04-25 22:12:00,
2013-04-25 18:17:00,56.8,28.0,30.25,WSW,250,0.0,9.0,33,0.00,,,0.00,meteohub,2013-04-25 22:17:00,
2013-04-25 18:22:00,57.4,29.3,30.25,WNW,285,1.0,9.0,34,0.00,,,0.00,meteohub,2013-04-25 22:22:00,
2013-04-25 18:27:00,57.4,30.0,30.25,West,279,2.0,9.0,35,0.00,,,0.00,meteohub,2013-04-25 22:27:00,
2013-04-25 18:32:00,56.8,29.5,30.26,West,274,1.0,7.0,35,0.00,,,0.00,meteohub,2013-04-25 22:32:00,
2013-04-25 18:37:00,56.5,29.8,30.26,WSW,246,0.0,7.0,36,0.00,,,0.00,meteohub,2013-04-25 22:37:00,
2013-04-25 18:42:00,56.1,28.8,30.26,West,265,4.0,11.0,35,0.00,,,0.00,meteohub,2013-04-25 22:42:00,
2013-04-25 18:47:00,56.1,29.5,30.26,WNW,283,0.0,11.0,36,0.00,,,0.00,meteohub,2013-04-25 22:47:00,
2013-04-25 18:52:00,55.9,29.3,30.26,WNW,297,2.0,11.0,36,0.00,,,0.00,meteohub,2013-04-25 22:52:00,
2013-04-25 18:57:00,55.8,29.8,30.27,WNW,287,2.0,9.0,37,0.00,,,0.00,meteohub,2013-04-25 22:57:00,
2013-04-25 19:02:00,55.8,29.8,30.27,SW,236,4.0,6.0,37,0.00,,,0.00,meteohub,2013-04-25 23:02:00,
2013-04-25 19:07:00,55.8,29.1,30.27,West,280,1.0,5.0,36,0.00,,,0.00,meteohub,2013-04-25 23:07:00,
2013-04-25 19:12:00,55.9,29.3,30.27,WNW,291,0.0,8.0,36,0.00,,,0.00,meteohub,2013-04-25 23:12:00,
2013-04-25 19:17:00,56.1,28.8,30.27,West,275,4.0,8.0,35,0.00,,,0.00,meteohub,2013-04-25 23:17:00,
2013-04-25 19:22:00,55.9,30.0,30.27,WNW,288,4.0,8.0,37,0.00,,,0.00,meteohub,2013-04-25 23:22:00,
2013-04-25 19:27:00,55.8,29.1,30.27,WNW,290,2.0,8.0,36,0.00,,,0.00,meteohub,2013-04-25 23:27:00,
2013-04-25 19:32:00,55.6,29.1,30.27,WNW,291,0.0,5.0,36,0.00,,,0.00,meteohub,2013-04-25 23:32:00,
2013-04-25 19:37:00,55.2,30.0,30.27,WSW,240,0.0,4.0,38,0.00,,,0.00,meteohub,2013-04-25 23:37:00,
2013-04-25 19:42:00,54.9,29.1,30.27,WSW,247,1.0,5.0,37,0.00,,,0.00,meteohub,2013-04-25 23:42:00,
2013-04-25 19:47:00,54.7,30.2,30.27,West,269,0.0,5.0,39,0.00,,,0.00,meteohub,2013-04-25 23:47:00,
2013-04-25 19:52:00,54.3,31.6,30.27,West,269,0.0,3.0,42,0.00,,,0.00,meteohub,2013-04-25 23:52:00,
2013-04-25 19:57:00,54.0,30.2,30.28,West,266,0.0,3.0,40,0.00,,,0.00,meteohub,2013-04-25 23:57:00,
2013-04-25 20:02:00,53.8,31.8,30.28,NNW,338,0.0,1.0,43,0.00,,,0.00,meteohub,2013-04-26 00:02:00,
2013-04-25 20:07:00,53.4,29.7,30.28,West,271,1.0,2.0,40,0.00,,,0.00,meteohub,2013-04-26 00:07:00,
2013-04-25 20:12:00,53.8,28.8,30.28,NW,305,3.0,6.0,38,0.00,,,0.00,meteohub,2013-04-26 00:12:00,
2013-04-25 20:17:00,54.0,28.9,30.29,WSW,255,0.0,7.0,38,0.00,,,0.00,meteohub,2013-04-26 00:17:00,
2013-04-25 20:22:00,53.8,29.5,30.29,WNW,285,0.0,8.0,39,0.00,,,0.00,meteohub,2013-04-26 00:22:00,
2013-04-25 20:27:00,53.2,30.2,30.29,West,262,1.0,8.0,41,0.00,,,0.00,meteohub,2013-04-26 00:27:00,
2013-04-25 20:32:00,52.7,30.2,30.29,WNW,285,0.0,3.0,42,0.00,,,0.00,meteohub,2013-04-26 00:32:00,
2013-04-25 20:37:00,52.2,30.9,30.30,WNW,285,0.0,3.0,44,0.00,,,0.00,meteohub,2013-04-26 00:37:00,
2013-04-25 20:42:00,51.6,30.9,30.30,WNW,285,0.0,3.0,45,0.00,,,0.00,meteohub,2013-04-26 00:42:00,
2013-04-25 20:47:00,51.3,30.0,30.30,SSW,201,0.0,0.0,44,0.00,,,0.00,meteohub,2013-04-26 00:47:00,
2013-04-25 20:52:00,51.3,31.1,30.30,SSE,158,0.0,0.0,46,0.00,,,0.00,meteohub,2013-04-26 00:52:00,
2013-04-25 20:57:00,51.3,30.0,30.31,SSE,158,0.0,0.0,44,0.00,,,0.00,meteohub,2013-04-26 00:57:00,
2013-04-25 21:02:00,51.3,30.0,30.31,SSE,152,0.0,0.0,44,0.00,,,0.00,meteohub,2013-04-26 01:02:00,
2013-04-25 21:07:00,51.3,30.6,30.31,WNW,287,0.0,1.0,45,0.00,,,0.00,meteohub,2013-04-26 01:07:00,
2013-04-25 21:12:00,51.1,30.6,30.31,West,274,0.0,1.0,45,0.00,,,0.00,meteohub,2013-04-26 01:12:00,
2013-04-25 21:17:00,50.7,30.7,30.31,NE,36,0.0,1.0,46,0.00,,,0.00,meteohub,2013-04-26 01:17:00,
2013-04-25 21:22:00,50.2,30.2,30.32,ESE,120,0.0,1.0,46,0.00,,,0.00,meteohub,2013-04-26 01:22:00,
2013-04-25 21:27:00,49.8,31.5,30.32,ESE,122,0.0,1.0,49,0.00,,,0.00,meteohub,2013-04-26 01:27:00,
2013-04-25 21:32:00,49.5,30.6,30.32,ESE,121,1.0,1.0,48,0.00,,,0.00,meteohub,2013-04-26 01:32:00,
2013-04-25 21:37:00,49.5,32.0,30.32,ESE,119,0.0,1.0,51,0.00,,,0.00,meteohub,2013-04-26 01:37:00,
2013-04-25 21:42:00,49.3,30.9,30.32,ESE,118,0.0,1.0,49,0.00,,,0.00,meteohub,2013-04-26 01:42:00,
2013-04-25 21:47:00,49.1,32.2,30.33,ESE,115,0.0,1.0,52,0.00,,,0.00,meteohub,2013-04-26 01:47:00,
2013-04-25 21:52:00,48.7,31.8,30.33,ESE,116,0.0,1.0,52,0.00,,,0.00,meteohub,2013-04-26 01:52:00,
2013-04-25 21:57:00,48.0,32.2,30.33,ESE,105,0.0,1.0,54,0.00,,,0.00,meteohub,2013-04-26 01:57:00,
2013-04-25 22:02:00,47.5,33.4,30.33,East,101,0.0,1.0,58,0.00,,,0.00,meteohub,2013-04-26 02:02:00,
2013-04-25 22:07:00,46.8,33.3,30.33,ESE,112,0.0,1.0,59,0.00,,,0.00,meteohub,2013-04-26 02:07:00,
2013-04-25 22:12:00,46.2,33.1,30.34,ESE,112,0.0,1.0,60,0.00,,,0.00,meteohub,2013-04-26 02:12:00,
2013-04-25 22:17:00,45.9,33.6,30.34,SE,139,0.0,1.0,62,0.00,,,0.00,meteohub,2013-04-26 02:17:00,
2013-04-25 22:22:00,45.9,33.6,30.34,ESE,122,0.0,1.0,62,0.00,,,0.00,meteohub,2013-04-26 02:22:00,
2013-04-25 22:28:00,46.0,32.9,30.34,ESE,122,0.0,1.0,60,0.00,,,0.00,meteohub,2013-04-26 02:28:00,
2013-04-25 22:33:00,46.0,34.2,30.34,ESE,122,0.0,1.0,63,0.00,,,0.00,meteohub,2013-04-26 02:33:00,
2013-04-25 22:38:00,45.9,34.3,30.35,ESE,122,0.0,1.0,64,0.00,,,0.00,meteohub,2013-04-26 02:38:00,
2013-04-25 22:43:00,45.7,35.8,30.35,SE,124,0.0,0.0,68,0.00,,,0.00,meteohub,2013-04-26 02:43:00,
2013-04-25 22:48:00,45.7,35.4,30.35,SE,124,0.0,1.0,67,0.00,,,0.00,meteohub,2013-04-26 02:48:00,
2013-04-25 22:53:00,46.0,35.8,30.35,ESE,122,0.0,1.0,67,0.00,,,0.00,meteohub,2013-04-26 02:53:00,
2013-04-25 22:58:00,46.0,36.1,30.35,ESE,122,0.0,1.0,68,0.00,,,0.00,meteohub,2013-04-26 02:58:00,
2013-04-25 23:03:00,45.9,36.0,30.35,ESE,123,0.0,1.0,68,0.00,,,0.00,meteohub,2013-04-26 03:03:00,
2013-04-25 23:08:00,45.7,35.8,30.35,ESE,122,0.0,1.0,68,0.00,,,0.00,meteohub,2013-04-26 03:08:00,
2013-04-25 23:13:00,45.5,35.2,30.35,ESE,123,0.0,0.0,67,0.00,,,0.00,meteohub,2013-04-26 03:13:00,
2013-04-25 23:18:00,45.3,35.8,30.35,ESE,122,0.0,0.0,69,0.00,,,0.00,meteohub,2013-04-26 03:18:00,
2013-04-25 23:23:00,45.1,34.9,30.35,ESE,122,0.0,0.0,67,0.00,,,0.00,meteohub,2013-04-26 03:23:00,
2013-04-25 23:28:00,45.1,36.7,30.36,ESE,123,0.0,1.0,72,0.00,,,0.00,meteohub,2013-04-26 03:28:00,
2013-04-25 23:33:00,44.8,36.0,30.36,ESE,122,0.0,1.0,71,0.00,,,0.00,meteohub,2013-04-26 03:33:00,
2013-04-25 23:39:00,44.4,34.9,30.36,West,268,0.0,0.0,69,0.00,,,0.00,meteohub,2013-04-26 03:39:00,
2013-04-25 23:44:00,43.7,35.2,30.37,West,266,0.0,1.0,72,0.00,,,0.00,meteohub,2013-04-26 03:44:00,
2013-04-25 23:49:00,43.2,35.1,30.37,NNW,328,0.0,1.0,73,0.00,,,0.00,meteohub,2013-04-26 03:49:00,
2013-04-25 23:54:00,43.2,35.4,30.37,North,1,0.0,1.0,74,0.00,,,0.00,meteohub,2013-04-26 03:54:00,
2013-04-25 23:59:00,43.7,36.3,30.38,NNE,26,0.0,1.0,75,0.00,,,0.00,meteohub,2013-04-26 03:59:00,